Location: Monflorite
(42.0946°N, 0.3557°W)
Time: 12:11:25
(UTC+00:00)

Daily predictions for brighter satellites

Satellite Brightness Start Highest point End
(mag) Time Altitude Azimuth Time Altitude Azimuth Time Altitude Azimuth
Cosmos 2344 4.1 16:58:43 10° SW 17:06:09 62° NW 17:14:15 10° NNE
Okean-O 3.4 17:05:36 10° SE 17:09:31 31° ENE 17:13:26 10° N
H-2A R/B 2.9 17:12:49 10° SSE 17:16:33 50° ENE 17:20:16 10° N
Genesis I 3.9 17:16:36 10° SW 17:20:33 55° NW 17:24:31 10° NNE
Cosmos 773 Rocket 4.0 17:17:28 10° SSW 17:22:36 82° ESE 17:27:49 10° NNE
Cosmos 1867 4.4 17:18:52 10° SW 17:24:09 50° NW 17:29:30 10° NNE
Cosmos 1743 Rocket 3.9 17:20:22 10° NNW 17:24:42 70° W 17:29:04 10° S
Cosmos 1805 Rocket 3.8 17:20:40 10° N 17:24:50 44° ENE 17:29:02 10° SSE
Cosmos 2233 Rocket 4.1 17:20:25 10° N 17:26:47 89° E 17:33:04 10° S
Cosmos 2082 4.3 17:25:07 10° N 17:30:09 32° NE 17:35:09 10° ESE
Cosmos 1447 Rocket 4.5 17:24:12 10° S 17:30:24 82° E 17:36:44 10° N
Meteor 1-27 4.5 17:29:08 10° SSW 17:34:45 75° W 17:40:30 10° N
COBE Rocket 3.8 17:30:34 10° NNE 17:35:21 64° E 17:39:59 10° S
AQUARIUS 4.2 17:32:15 10° SSE 17:36:45 88° W 17:41:16 10° NNW
Cosmos 1697 Rocket 3.3 17:31:47 10° SSE 17:36:49 34° ESE 17:41:52 10° NE
Meteor 2-2 Rocket 4.3 17:31:05 10° S 17:36:58 85° E 17:42:46 10° N
Okean O Rocket 4.3 17:34:03 10° SSW 17:37:38 24° W 17:41:14 10° NW
ATLAS 5 CENTAUR R/B 2.4 17:34:45 10° NNW 17:40:33 66° NE 17:47:12 10° SE
Cosmos 1862 4.1 17:39:19 10° NNE 17:42:49 29° ENE 17:46:20 10° SE
Cosmos 1538 Rocket 4.1 17:37:45 10° SSW 17:43:00 87° WNW 17:48:21 10° NNE
BREEZE-M DEB (TANK) 3.9 17:43:42 10° WNW 17:46:27 20° N 17:47:37 15° NNE
NOAA 12 4.0 17:41:53 10° SSE 17:47:11 76° ENE 17:52:32 10° N
Meteor 2-20 4.5 17:43:28 10° S 17:49:35 88° W 17:55:47 10° N
Cosmos 1464 Rocket 4.0 17:43:58 10° N 17:50:00 53° ENE 17:55:57 10° SSE
GEOS 3 Rocket 4.0 17:46:24 10° NNE 17:51:34 63° NW 17:56:46 10° SW
Cosmos 1633 Rocket 3.5 17:50:08 10° N 17:54:17 39° ENE 17:58:26 10° SSE
Cosmos 2084 4.3 17:52:57 10° NW 17:57:08 52° WSW 18:01:12 10° SSE
Cosmos 1072 Rocket 4.4 17:53:05 10° N 17:59:12 69° E 18:05:21 10° SSE
USA 215 4.2 17:56:07 18° ENE 17:59:48 31° NNE 18:05:21 10° NW
Cosmos 1633 2.5 17:58:59 10° N 18:02:37 63° E 18:06:13 10° SSE
COSMO-SKYMED 1 2.5 17:59:34 10° NNE 18:03:55 67° ESE 18:08:13 10° S
Cosmos 1666 Rocket 3.4 18:01:29 10° N 18:05:50 65° E 18:10:08 10° SSE
NOSS 2-3 (E) 3.8 18:02:22 10° SSW 18:06:31 52° ESE 18:08:53 26° NE
Sich 1 3.0 18:02:32 10° N 18:06:54 88° WSW 18:11:16 10° S
Cosmos 1656 3.8 18:01:42 10° SSW 18:07:16 77° WNW 18:12:47 10° NNE
Cosmos 1607 4.1 18:01:23 10° NW 18:07:37 77° WSW 18:13:52 10° SSE
Cosmos 1328 Rocket 3.8 18:03:59 10° SSE 18:08:10 44° E 18:11:27 16° NNE
USA 229 DEB 4.0 18:02:23 10° SW 18:08:53 63° NW 18:15:39 10° NNE
USA 229 4.0 18:02:30 10° SW 18:08:59 64° NW 18:15:43 10° NNE
Envisat 3.0 18:05:04 10° SSE 18:10:08 83° WSW 18:15:15 10° NNW
APEX 4.4 18:07:19 10° SSE 18:09:35 22° SE 18:09:35 22° SE
Cosmos 1151 Rocket 3.3 18:06:51 10° SSE 18:10:57 43° E 18:13:21 22° NNE
PSLV R/B 2.6 18:09:48 10° W 18:12:18 63° S 18:12:19 63° S
NOSS 3-1 (A) 3.2 18:08:35 10° SW 18:14:02 90° WNW 18:18:58 17° NE
Cosmos 1356 Rocket 4.2 18:10:12 10° SSW 18:14:14 53° WNW 18:18:23 10° N
NOSS 3-1 (C) 3.8 18:09:03 10° SW 18:14:28 59° NW 18:20:15 12° NNE
CSL-04 Debris 4.2 18:09:30 10° SSE 18:14:53 59° ENE 18:20:17 10° N
NOSS 2-3 (D) 3.7 18:11:45 10° SSW 18:15:57 59° ESE 18:17:54 32° NE
TELKOM 3 4.1 18:14:49 10° WNW 18:16:17 37° WNW 18:16:17 37° WNW
SeaSat 1 2.8 18:13:50 10° SSE 18:18:43 68° WSW 18:23:39 10° NNW
YAOGAN 6 2.5 18:20:11 10° S 18:23:40 78° WSW 18:27:10 10° NNW
Lacrosse 4 Rocket 1.5 18:20:13 10° SW 18:24:17 72° WNW 18:26:19 28° NNE
CZ-4 R/B 4.5 18:21:44 10° S 18:25:52 81° W 18:30:01 10° NNW
Cosmos 1371 Rocket 4.2 18:23:42 10° N 18:28:40 43° ENE 18:29:08 42° E
YAOGAN 1 2.4 18:25:16 10° SSE 18:29:34 79° ENE 18:33:55 10° N
CSL-04 Rocket 3.5 18:27:10 10° SSE 18:32:33 82° ENE 18:37:53 10° NNW
CZ-4 R/B 1.7 18:30:28 10° S 18:34:38 69° W 18:38:44 10° NNW
ERBS 3.4 18:32:25 10° WSW 18:35:32 36° NW 18:35:52 35° NNW
Cosmos 1470 Rocket 3.5 18:32:19 10° N 18:36:47 63° E 18:37:26 55° ESE
Cosmos 2346 Rocket 4.3 18:31:25 10° S 18:37:38 78° E 18:43:51 10° N
USA 116 4.2 18:34:34 11° N 18:38:58 82° WNW 18:44:03 10° SSW
Cosmos 1980 Rocket 2.1 18:35:11 10° S 18:40:44 63° ESE 18:42:22 45° NE
Cosmos 2112 Rocket 3.9 18:35:36 10° SSW 18:40:46 87° ESE 18:43:26 30° NNE
Cosmos 724 4.2 18:35:57 10° NNW 18:41:46 63° NE 18:43:11 48° ESE
Meteor 2-11 Rocket 4.4 18:39:07 10° N 18:45:15 82° W 18:51:22 10° S
Cosmos 2227 Rocket 3.5 18:41:07 10° NW 18:46:22 40° WSW 18:51:35 10° S
Cosmos 2297 Rocket 3.7 18:41:17 10° NW 18:46:26 37° WSW 18:51:32 10° S
Cosmos 2034 Rocket 4.1 18:40:30 10° N 18:46:51 78° W 18:53:13 10° S
Cosmos 1680 Rocket 3.7 18:42:51 10° SSW 18:48:02 70° WNW 18:51:19 23° N
Ariane Rocket 3.6 18:54:36 41° NNE 18:54:36 41° NNE 18:58:03 10° N
NOSS 2-3 (C) 4.0 18:49:39 10° SW 18:53:56 61° NW 18:54:59 48° N
Cosmos 158 Rocket 3.8 18:49:31 10° SSW 18:54:50 75° ESE 18:55:05 73° E
Tsikada Rocket 4.2 19:00:58 10° SSW 19:07:17 74° W 19:13:44 10° N
Cosmos 1634 Rocket 4.0 19:01:59 10° N 19:07:08 58° NNE 19:07:08 58° NNE
Cosmos 2263 Rocket 3.7 19:04:38 10° N 19:06:52 22° N 19:06:52 22° N
Cosmos 1624 Rocket 4.4 19:15:08 10° NNW 19:19:31 59° NW 19:19:31 59° NW
Cosmos 2056 Rocket 4.2 19:15:34 10° NNW 19:19:11 46° NNW 19:19:11 46° NNW
Cosmos 1697 Rocket 4.0 19:15:33 10° WSW 19:20:43 36° WNW 19:23:49 21° N
ATLAS 5 CENTAUR R/B 4.5 19:20:09 10° WNW 19:25:01 25° WSW 19:30:19 10° SSW
USA 215 3.6 19:43:28 56° NNW 19:43:28 56° NNW 19:48:39 10° NW
Centaur D-1A AC-31 4.0 19:43:35 10° SSW 19:43:48 11° SSW 19:43:48 11° SSW
Cosmos 1980 Rocket 4.4 20:20:55 10° W 20:24:11 21° WNW 20:24:11 21° WNW
